Location: Friaudour
(46.0460°N, 1.2873°E)
Time: 10:46:05
(UTC+00:00)

Cosmos 2360 - Pass Details

Date: 14 July 2020
Orbit: 844 x 858 km, 70.8° (Epoch: 06 August)

Event Time Altitude Azimuth Distance (km) Brightness Sun altitude
Rises 02:34:43 0° 330° (NNW) 3,441 7.7 -13.9°
Reaches altitude 10° 02:37:12 10° 327° (NNW) 2,501 6.9 -13.6°
Maximum altitude 02:42:51 61° 249° (WSW) 970 4.3 -13.0°
Drops below altitude 10° 02:48:28 10° 170° (S) 2,484 6.3 -12.4°
Sets 02:50:56 0° 167° (SSE) 3,415 7.0 -12.1°
